Aérodrome :







RETROUVEZ-NOUS SUR...

 
LOGIN :

S'inscrire | Disclaimer

   EN    FR    IT 

 









Légende :    VFR   VFR Marginal   IFR   IFR Intensif   IFR Très Intensif
Visi : 
Plafond : 
>= 8 km
>= 3000ft
5 à 8 km
1000 à 3000 ft
1500m à 5 km
500 à 1000 ft
800 à 1500m
200 à 500 ft
< 800m
< 200 ft
Symboles :   Orages  Brouillard  Fortes neiges  Fortes précipitations  Vent > 20 kt






- Altitude de l'aérodrome : 112 ft
- Code IATA : UAK


BGBW - Narsarsuak

DERNIER METAR :
  • 151350Z 04006KT 9999 BKN110 M07/M14 Q1008

METARs EXPIRÉS :
  • 151250Z VRB01KT 9999 SCT084 BKN100 M06/M14 Q1008
  • 151150Z 06004KT 030V090 9999 FEW170 M07/M15 Q1008

TAF TAF BGBW
Valide du 15 à 12h jusqu'au 15 à 20h UTC


151106Z 1512/1520 07005KT 9999 FEW050 BKN150
PROB40 1518/1520 3000 -SHSN BKN018
FIR BGGL / Amérique du Nord



MET'MAP, la Météo Aéronautique d'un coup d'oeil ! - Copyright ORBIFLY Décembre 2007 - Disclaimer

ORBIFLY MET'MAP TEAM :

Programmation & Développement : Alexandra Zaïnal
Sur une idée originale de : Baudouin d'Aumeries
Assistance à la programmation : Marc-Olivier Méhu
Soutien technique & logistique : Manuel Goepfert

Contact : metmap@orbifly.com




SOURCES & CREDITS :

   NOAA